BREEZE-M DEB, 41318

Orbit data source: Space-Track

BREEZE-M DEB, 41318 is space debris in HEO originally from a launch on Thu, 17 May 2012 UTC launched from the Tyuratam Missile And Space Complex (TTMTR). Debris objects in space refer to the collection of defunct objects orbiting the Earth. Examples of debris include non-operational satellites, rocket bodies, and fragments generated from explosions, collisions, or faulty payload assembly.

Loading next visibility...
Identifier
41318, 2012-026E
Orbit
HEO
Country
Flag of CISCIS
Related business
Manufacturer
Khrunichev
Mission
Spacecraft
Bus & Motor
Unknown
Mass
Unknown
Launch date (UTC)
2012-05-17 (14 years ago)
Launch vehicle
Unknown
Launch site
Tyuratam Missile And Space Complex (TTMTR)
Object type
Payload
Rocket body
Debris
Shape & HBR
Unknown shape, 1.1 m
Radar Cross Section
RCS unknown

Expand to show TLE details & history
Last TLE update: 1 day ago

TLE from 1 day ago
0 BREEZE-M DEB
1 41318U 12026E   25353.70761970 -.00000042  00000-0  00000-0 0  9990
2 41318  10.0538 155.5378 4086097  11.9948 355.3030  1.76519443 64027
Epoch: 2025-12-19T16:58Z
TLE epoch observation values (Epoch: 2025-12-19T16:58:58.342Z)
Latitude
-0.00001°
Longitude
172.18286°
Altitude
10,863.046 km
Speed
5.697 km/s
True Right ascension
10h 21m 53s
True Declination
0° 00' 00"
Sunlit
Object was in daylight at epoch
Visualization orbit readout
Latitude
Unknown
Longitude
Unknown
Altitude
Unknown
Speed
Unknown
Apparent Right ascension
Unknown
Apparent Declination
Unknown
Sunlit
N/A
Visualization observer readout
Local Sidereal Time
22:17:24
Azimuth
Unknown
Elevation
Unknown
Doppler factor
Unknown
Orbital elements
Apogee altitude
34,362.372 km
Perigee altitude
10,726.347 km
Semi-major axis
28,922.497 km
Eccentricity
0.40861
Inclination
10.0538°
RAAN
155.5378°
Arg. of periapsis
11.9948°
True anomaly
347.79616°
Mean anomaly
355.303°
Eccentric anomaly
352.07514°
Mean motion
0.44125 °/min
Orbital period
815.86 mins
BSTAR
0
Loading maneuver chart data...
Computing Atmospheric mass density...
Loading historical data...
Loading historical data...
Loading historical data...
Loading historical data...
Loading historical data...
Loading historical data...
Loading historical data...

Documentation

Showing up to 5 results
|